TimeEDT,TemperatureF,Dew PointF,Humidity,Sea Level PressureIn,VisibilityMPH,Wind Direction,Wind SpeedMPH,Gust SpeedMPH,PrecipitationIn,Events,Conditions,WindDirDegrees,DateUTC
12:53 AM,81.0,70.0,69,30.09,10.0,SE,8.1,-,N/A,,Mostly Cloudy,130,2013-07-10 04:53:00
1:53 AM,80.1,71.1,74,30.06,10.0,SSE,3.5,-,N/A,,Mostly Cloudy,150,2013-07-10 05:53:00
2:53 AM,80.1,72.0,76,30.06,10.0,ESE,3.5,-,0.01,Rain,Light Rain,110,2013-07-10 06:53:00
3:08 AM,77.0,69.8,78,30.07,8.0,South,13.8,27.6,0.00,Rain,Light Rain,170,2013-07-10 07:08:00
3:13 AM,75.2,69.8,83,30.07,10.0,SSW,10.4,-,0.02,Rain,Rain,210,2013-07-10 07:13:00
3:53 AM,73.9,68.0,82,30.07,10.0,SSE,5.8,-,0.05,,Mostly Cloudy,150,2013-07-10 07:53:00
4:03 AM,75.2,68.0,78,30.07,10.0,ESE,12.7,-,0.00,Rain-Thunderstorm,Light Thunderstorms and Rain,120,2013-07-10 08:03:00
4:21 AM,73.4,68.0,83,30.06,10.0,NE,3.5,-,0.13,Rain,Rain,50,2013-07-10 08:21:00
4:53 AM,75.0,69.1,82,30.07,10.0,South,6.9,-,0.15,,Mostly Cloudy,180,2013-07-10 08:53:00
5:53 AM,73.9,66.9,79,30.05,10.0,Calm,Calm,-,0.00,,Overcast,0,2013-07-10 09:53:00
6:53 AM,75.0,69.1,82,30.05,10.0,NE,3.5,-,N/A,,Mostly Cloudy,40,2013-07-10 10:53:00
7:53 AM,77.0,69.1,76,30.07,10.0,Calm,Calm,-,N/A,,Mostly Cloudy,0,2013-07-10 11:53:00
8:53 AM,79.0,70.0,74,30.09,10.0,NE,3.5,-,N/A,,Mostly Cloudy,50,2013-07-10 12:53:00
9:53 AM,82.0,71.1,69,30.09,10.0,East,6.9,-,N/A,,Mostly Cloudy,80,2013-07-10 13:53:00
10:53 AM,81.0,71.1,72,30.09,10.0,ESE,8.1,-,N/A,,Mostly Cloudy,110,2013-07-10 14:53:00
11:53 AM,82.0,70.0,67,30.09,10.0,ESE,10.4,-,0.00,Rain,Light Rain,120,2013-07-10 15:53:00
12:53 PM,82.9,71.1,67,30.07,10.0,East,10.4,-,0.00,,Mostly Cloudy,100,2013-07-10 16:53:00
1:53 PM,82.9,71.1,67,30.06,10.0,SE,11.5,-,N/A,,Mostly Cloudy,130,2013-07-10 17:53:00
2:53 PM,84.0,71.1,65,30.05,10.0,ESE,11.5,-,N/A,,Mostly Cloudy,120,2013-07-10 18:53:00
3:53 PM,84.9,71.1,63,30.04,10.0,SE,12.7,-,N/A,,Mostly Cloudy,130,2013-07-10 19:53:00
4:53 PM,84.9,71.1,63,30.03,10.0,Variable,5.8,-,N/A,,Mostly Cloudy,0,2013-07-10 20:53:00
5:53 PM,84.9,71.1,63,30.02,10.0,SE,13.8,-,N/A,,Mostly Cloudy,140,2013-07-10 21:53:00
6:53 PM,84.0,71.1,65,30.01,10.0,SE,11.5,-,N/A,,Mostly Cloudy,140,2013-07-10 22:53:00
7:53 PM,82.9,71.1,67,30.01,10.0,SE,8.1,-,N/A,,Mostly Cloudy,140,2013-07-10 23:53:00
8:53 PM,82.0,71.1,69,30.02,10.0,SE,9.2,-,N/A,,Mostly Cloudy,130,2013-07-11 00:53:00
9:53 PM,82.0,71.1,69,30.03,10.0,SE,9.2,-,N/A,,Scattered Clouds,140,2013-07-11 01:53:00
10:53 PM,82.0,72.0,71,30.04,10.0,SE,8.1,-,N/A,,Scattered Clouds,130,2013-07-11 02:53:00
11:53 PM,82.0,72.0,71,30.05,10.0,SE,8.1,-,N/A,,Scattered Clouds,140,2013-07-11 03:53:00